When you browse on this site, cookies collect data to enhance your experience and personalize the content and advertising you see.
Visit our Privacy Policy to learn more. By continuing to use the site, you agree to this use of cookies and data.
  • In Hungary
  • List of Countries
  • For 7 days
  • Water Temperature
  • Satellite Maps
  • Weather Map
  • News
  • Weather Widgets
  • user-avatar
    Login

    Hourly Weather Chincholi

    Today, 17 November, Saturday

    Time Temperature Precipitation Wind Pressure Humidity
    00:00 +25°C° 0 mm 2 mps 720 mmHg 78%
    01:00 +24°C° 0 mm 2 mps 720 mmHg 82%
    02:00 +24°C° 0 mm 1 mps 719 mmHg 86%
    03:00 +24°C° 0 mm 1 mps 719 mmHg 87%
    04:00 +24°C° 0 mm 1 mps 720 mmHg 88%
    05:00 +23°C° 0 mm 1 mps 720 mmHg 89%
    06:00 +25°C° 0 mm 2 mps 720 mmHg 83%
    07:00 +26°C° 0 mm 2 mps 721 mmHg 77%
    08:00 +27°C° 0 mm 2 mps 721 mmHg 70%
    09:00 +29°C° 0 mm 3 mps 721 mmHg 63%
    10:00 +30°C° 0 mm 3 mps 721 mmHg 56%
    11:00 +33°C° 0 mm 3 mps 720 mmHg 48%
    12:00 +33°C° 0 mm 3 mps 720 mmHg 47%
    13:00 +34°C° 0 mm 2 mps 719 mmHg 46%
    14:00 +34°C° 0 mm 2 mps 718 mmHg 45%
    15:00 +32°C° 0 mm 2 mps 718 mmHg 48%
    16:00 +32°C° 0 mm 2 mps 718 mmHg 51%
    17:00 +31°C° 0 mm 2 mps 718 mmHg 54%
    18:00 +30°C° 0 mm 2 mps 719 mmHg 58%
    19:00 +29°C° 0 mm 3 mps 719 mmHg 61%
    20:00 +28°C° 0 mm 3 mps 719 mmHg 65%
    21:00 +27°C° 0 mm 3 mps 719 mmHg 69%
    22:00 +27°C° 0 mm 3 mps 719 mmHg 73%
    23:00 +26°C° 0 mm 3 mps 719 mmHg 78%

    Tomorrow, 18 November, Sunday

    Time Temperature Precipitation Wind Pressure Humidity
    00:00 +26°C° 0 mm 3 mps 719 mmHg 80%
    01:00 +25°C° 0 mm 2 mps 719 mmHg 82%
    02:00 +25°C° 0 mm 2 mps 719 mmHg 85%
    03:00 +25°C° 0 mm 2 mps 719 mmHg 86%
    04:00 +24°C° 0 mm 2 mps 719 mmHg 86%
    05:00 +24°C° 0 mm 2 mps 719 mmHg 87%
    06:00 +25°C° 0 mm 2 mps 720 mmHg 82%
    07:00 +26°C° 0 mm 2 mps 720 mmHg 77%
    08:00 +28°C° 0 mm 3 mps 721 mmHg 72%
    09:00 +29°C° 0 mm 3 mps 721 mmHg 65%
    10:00 +31°C° 0 mm 3 mps 721 mmHg 58%
    11:00 +33°C° 0 mm 3 mps 721 mmHg 50%
    12:00 +34°C° 0 mm 3 mps 720 mmHg 49%
    13:00 +34°C° 0 mm 3 mps 719 mmHg 47%
    14:00 +34°C° 0 mm 3 mps 718 mmHg 46%
    15:00 +32°C° 0 mm 2 mps 718 mmHg 48%
    16:00 +32°C° 0 mm 2 mps 718 mmHg 51%
    17:00 +31°C° 0 mm 2 mps 718 mmHg 53%
    18:00 +30°C° 0.1 mm 2 mps 719 mmHg 56%
    19:00 +29°C° 0.1 mm 3 mps 719 mmHg 58%
    20:00 +29°C° 0.1 mm 3 mps 720 mmHg 61%
    21:00 +28°C° 0 mm 3 mps 720 mmHg 65%
    22:00 +27°C° 0 mm 3 mps 720 mmHg 69%
    23:00 +26°C° 0 mm 3 mps 720 mmHg 73%

    Day after tomorrow, 19 November, Monday

    Time Temperature Precipitation Wind Pressure Humidity
    00:00 +26°C° 0 mm 3 mps 720 mmHg 75%
    01:00 +25°C° 0 mm 3 mps 720 mmHg 78%
    02:00 +25°C° 0 mm 2 mps 719 mmHg 80%
    03:00 +25°C° 0 mm 2 mps 720 mmHg 81%
    04:00 +25°C° 0 mm 2 mps 720 mmHg 81%
    05:00 +25°C° 0 mm 2 mps 720 mmHg 82%
    06:00 +26°C° 0 mm 3 mps 720 mmHg 78%
    07:00 +27°C° 0 mm 3 mps 721 mmHg 73%
    08:00 +28°C° 0 mm 4 mps 722 mmHg 68%
    09:00 +29°C° 0 mm 4 mps 722 mmHg 60%
    10:00 +32°C° 0 mm 4 mps 722 mmHg 51%
    11:00 +34°C° 0 mm 4 mps 722 mmHg 42%
    12:00 +34°C° 0 mm 3 mps 721 mmHg 40%
    13:00 +35°C° 0 mm 3 mps 721 mmHg 37%
    14:00 +35°C° 0 mm 3 mps 720 mmHg 35%
    15:00 +34°C° 0 mm 3 mps 720 mmHg 38%
    16:00 +32°C° 0 mm 2 mps 720 mmHg 42%
    17:00 +31°C° 0 mm 2 mps 720 mmHg 45%
    18:00 +30°C° 0 mm 2 mps 720 mmHg 48%
    19:00 +30°C° 0 mm 3 mps 721 mmHg 51%
    20:00 +29°C° 0 mm 3 mps 722 mmHg 53%
    21:00 +28°C° 0 mm 3 mps 722 mmHg 56%
    22:00 +27°C° 0 mm 3 mps 722 mmHg 60%
    23:00 +26°C° 0 mm 3 mps 722 mmHg 63%

    20 November, Tuesday

    Time Temperature Precipitation Wind Pressure Humidity
    00:00 +26°C° 0 mm 2 mps 721 mmHg 65%
    01:00 +26°C° 0 mm 2 mps 721 mmHg 68%
    02:00 +25°C° 0 mm 2 mps 720 mmHg 70%
    03:00 +25°C° 0 mm 2 mps 720 mmHg 72%
    04:00 +24°C° 0 mm 1 mps 721 mmHg 73%
    05:00 +24°C° 0 mm 1 mps 721 mmHg 75%
    06:00 +25°C° 0 mm 2 mps 721 mmHg 71%
    07:00 +26°C° 0 mm 2 mps 722 mmHg 68%
    08:00 +27°C° 0 mm 2 mps 723 mmHg 64%
    09:00 +29°C° 0 mm 3 mps 723 mmHg 56%
    10:00 +31°C° 0 mm 3 mps 723 mmHg 48%
    11:00 +33°C° 0 mm 3 mps 723 mmHg 40%
    12:00 +34°C° 0 mm 3 mps 722 mmHg 37%
    13:00 +34°C° 0 mm 3 mps 721 mmHg 35%
    14:00 +35°C° 0 mm 3 mps 720 mmHg 32%
    15:00 +34°C° 0 mm 3 mps 720 mmHg 36%
    16:00 +31°C° 0 mm 3 mps 720 mmHg 40%
    17:00 +30°C° 0 mm 2 mps 720 mmHg 44%
    18:00 +29°C° 0 mm 2 mps 720 mmHg 46%
    19:00 +28°C° 0 mm 2 mps 721 mmHg 49%
    20:00 +27°C° 0 mm 2 mps 722 mmHg 51%
    21:00 +27°C° 0 mm 2 mps 722 mmHg 54%
    22:00 +26°C° 0 mm 2 mps 722 mmHg 57%
    23:00 +25°C° 0 mm 2 mps 722 mmHg 59%

    21 November, Wednesday

    Time Temperature Precipitation Wind Pressure Humidity
    00:00 +25°C° 0 mm 2 mps 721 mmHg 63%
    01:00 +25°C° 0 mm 1 mps 721 mmHg 66%
    02:00 +24°C° 0 mm 1 mps 720 mmHg 69%
    03:00 +24°C° 0 mm 1 mps 720 mmHg 71%
    04:00 +23°C° 0 mm 1 mps 721 mmHg 73%
    05:00 +23°C° 0 mm 1 mps 721 mmHg 76%
    06:00 +24°C° 0 mm 1 mps 721 mmHg 72%
    07:00 +25°C° 0 mm 2 mps 722 mmHg 68%
    08:00 +27°C° 0 mm 2 mps 723 mmHg 65%
    09:00 +28°C° 0 mm 2 mps 723 mmHg 57%
    10:00 +30°C° 0 mm 3 mps 723 mmHg 50%
    11:00 +33°C° 0 mm 3 mps 722 mmHg 42%
    12:00 +33°C° 0 mm 3 mps 721 mmHg 40%
    13:00 +33°C° 0 mm 3 mps 721 mmHg 37%
    14:00 +34°C° 0 mm 3 mps 720 mmHg 35%
    15:00 +33°C° 0 mm 3 mps 720 mmHg 39%
    16:00 +30°C° 0 mm 3 mps 720 mmHg 43%
    17:00 +29°C° 0 mm 2 mps 720 mmHg 47%
    18:00 +28°C° 0 mm 3 mps 720 mmHg 50%
    19:00 +27°C° 0 mm 3 mps 721 mmHg 53%
    20:00 +26°C° 0 mm 3 mps 722 mmHg 56%
    21:00 +26°C° 0 mm 3 mps 721 mmHg 60%
    22:00 +25°C° 0 mm 2 mps 721 mmHg 63%
    23:00 +25°C° 0 mm 2 mps 721 mmHg 67%

    22 November, Thursday

    Time Temperature Precipitation Wind Pressure Humidity
    00:00 +24°C° 0 mm 2 mps 721 mmHg 68%
    01:00 +24°C° 0 mm 2 mps 720 mmHg 70%
    02:00 +24°C° 0 mm 2 mps 720 mmHg 71%
    03:00 +23°C° 0 mm 1 mps 720 mmHg 73%
    04:00 +23°C° 0 mm 1 mps 720 mmHg 75%
    05:00 +23°C° 0 mm 1 mps 720 mmHg 77%
    06:00 +24°C° 0 mm 2 mps 721 mmHg 74%
    07:00 +25°C° 0 mm 2 mps 722 mmHg 71%
    08:00 +26°C° 0 mm 3 mps 722 mmHg 69%
    09:00 +28°C° 0 mm 3 mps 722 mmHg 60%
    10:00 +30°C° 0 mm 3 mps 722 mmHg 52%
    11:00 +32°C° 0 mm 4 mps 722 mmHg 44%
    12:00 +33°C° 0 mm 4 mps 721 mmHg 41%
    13:00 +33°C° 0 mm 4 mps 720 mmHg 39%
    14:00 +34°C° 0 mm 4 mps 720 mmHg 36%
    15:00 +33°C° 0 mm 4 mps 720 mmHg 40%
    16:00 +30°C° 0 mm 4 mps 720 mmHg 44%
    17:00 +29°C° 0 mm 3 mps 720 mmHg 48%
    18:00 +28°C° 0 mm 3 mps 720 mmHg 51%
    19:00 +27°C° 0 mm 4 mps 721 mmHg 54%
    20:00 +26°C° 0 mm 4 mps 721 mmHg 57%
    21:00 +25°C° 0 mm 3 mps 721 mmHg 58%
    22:00 +25°C° 0 mm 3 mps 721 mmHg 60%
    23:00 +24°C° 0 mm 2 mps 721 mmHg 61%
    Show more